Moscow Sheremetyevo, Russia

8:13 PM MSK on June 22, 2018 (GMT +0300)
Sheremetyevo

Weather History for UUEE - December, 2017

Change the Weather History Date:

Thursday, December 7, 2017

  Actual Average Record
Temperature  
Mean Temperature 24 °F -  
Max Temperature 24 °F 26 °F 44 °F (2006)
Min Temperature 23 °F 19 °F -4 °F (2001)
Degree Days  
Heating Degree Days 42    
Moisture  
Dew Point 21 °F    
Average Humidity 91    
Maximum Humidity 100    
Minimum Humidity 80    
Precipitation  
Precipitation 0.00 in - - ()
Sea Level Pressure  
Sea Level Pressure 29.70 in    
Wind  
Wind Speed 6 mph ()    
Max Wind Speed 11 mph    
Max Gust Speed -    
Visibility 5.2 miles    
Events Snow    
Averages and records for this station are not official NWS values.
T = Trace of Precipitation, MM = Missing Value Source: Averaged Metar Reports

Daily Weather History Graph

Daily Weather History Graph

Search for Another Location

Airport or City:

Astronomy

Dec. 07, 2017 Rise Set
Actual Time 8:45 AM MSK 3:56 PM MSK
Civil Twilight 7:59 AM MSK 4:43 PM MSK
Nautical Twilight 7:10 AM MSK 5:31 PM MSK
Astronomical Twilight 6:25 AM MSK 6:16 PM MSK
Moon 8:38 PM MSK (12/7) 11:53 AM MSK (12/7)
Length of Visible Light 8h 43m
Length of Day
7h 11m
Waning Gibbous, 81% of the Moon is Illuminated
Dec 7
Waning Gibbous
Dec 10
Last Quarter
Dec 18
New
Dec 26
First Quarter
Jan 2
Full

Hourly Weather History & Observations

Time (MSK) Temp. Windchill Dew Point Humidity Pressure Visibility Wind Dir Wind Speed Gust Speed Precip Events Conditions
12:00 AM 24.8 °F 17.1 °F 24.8 °F 100% 29.56 in 1.9 mi NE 6.7 mph - N/A Snow Light Snow
12:30 AM 24.8 °F 17.1 °F 24.8 °F 100% 29.56 in 1.4 mi NE 6.7 mph - N/A Snow Light Snow Showers
1:00 AM 24.8 °F 17.1 °F 24.8 °F 100% 29.56 in 0.9 mi NNE 6.7 mph - N/A Snow Snow Showers
1:30 AM 24.8 °F 17.1 °F 24.8 °F 100% 29.56 in - North 6.7 mph - N/A Snow Light Snow
2:00 AM 24.8 °F 17.1 °F 23.0 °F 93% 29.56 in - NNE 6.7 mph - N/A Snow Light Snow
2:30 AM 24.8 °F 17.1 °F 23.0 °F 93% 29.56 in 1.4 mi North 6.7 mph - N/A Snow Light Snow
3:00 AM 24.8 °F 19.2 °F 23.0 °F 93% 29.59 in 2.2 mi North 4.5 mph - N/A Snow Light Snow
3:30 AM 24.8 °F 17.1 °F 23.0 °F 93% 29.59 in 2.2 mi North 6.7 mph - N/A Snow Light Snow
4:00 AM 24.8 °F 17.1 °F 23.0 °F 93% 29.59 in - North 6.7 mph - N/A Snow Light Snow
4:30 AM 23.0 °F 14.9 °F 23.0 °F 100% 29.59 in - North 6.7 mph - N/A Snow Light Snow
5:00 AM 23.0 °F 14.9 °F 23.0 °F 100% 29.59 in - NNW 6.7 mph - N/A Snow Light Snow
5:30 AM 23.0 °F 14.9 °F 21.2 °F 93% 29.59 in 3.1 mi NNW 6.7 mph - N/A Snow Light Snow
6:00 AM 23.0 °F 14.9 °F 21.2 °F 93% 29.62 in 3.1 mi NW 6.7 mph - N/A Snow Light Snow
6:30 AM 23.0 °F 14.9 °F 21.2 °F 93% 29.62 in - NNW 6.7 mph - N/A Snow Light Snow
7:00 AM 23.0 °F 14.9 °F 21.2 °F 93% 29.62 in - NNW 6.7 mph - N/A Snow Light Snow
7:30 AM 23.0 °F 14.9 °F 21.2 °F 93% 29.62 in 3.1 mi NNW 6.7 mph - N/A Snow Light Snow
8:00 AM 23.0 °F 14.9 °F 21.2 °F 93% 29.65 in 5.0 mi NNW 6.7 mph - N/A Snow Light Snow
8:30 AM 23.0 °F 14.9 °F 21.2 °F 93% 29.65 in 6.2 mi NNW 6.7 mph - N/A   Mostly Cloudy
9:00 AM 23.0 °F 17.1 °F 21.2 °F 93% 29.65 in 6.2 mi NNW 4.5 mph - N/A   Overcast
9:30 AM 23.0 °F 17.1 °F 21.2 °F 93% 29.68 in 6.2 mi NW 4.5 mph - N/A   Overcast
10:00 AM 24.8 °F 17.1 °F 23.0 °F 93% 29.68 in 6.2 mi NNW 6.7 mph - N/A   Overcast
10:30 AM 24.8 °F 15.5 °F 23.0 °F 93% 29.68 in 5.6 mi NNW 8.9 mph - N/A   Overcast
11:00 AM 24.8 °F 17.1 °F 23.0 °F 93% 29.68 in 6.2 mi NNW 6.7 mph - N/A   Overcast
11:30 AM 24.8 °F 17.1 °F 23.0 °F 93% 29.68 in 6.2 mi NW 6.7 mph - N/A   Overcast
12:00 PM 24.8 °F 17.1 °F 21.2 °F 86% 29.71 in 6.2 mi NW 6.7 mph - N/A   Mostly Cloudy
12:30 PM 24.8 °F 17.1 °F 23.0 °F 93% 29.71 in 6.2 mi NNW 6.7 mph - N/A   Mostly Cloudy
1:00 PM 24.8 °F 15.5 °F 23.0 °F 93% 29.71 in 6.2 mi NNW 8.9 mph - N/A   Mostly Cloudy
1:30 PM 24.8 °F 14.2 °F 23.0 °F 93% 29.71 in 6.2 mi NNW 11.2 mph - N/A Snow Light Snow
2:00 PM 24.8 °F 14.2 °F 21.2 °F 86% 29.71 in 5.6 mi NNW 11.2 mph - N/A Snow Light Snow
2:30 PM 24.8 °F 14.2 °F 21.2 °F 86% 29.74 in 6.2 mi NW 11.2 mph - N/A   Overcast
3:00 PM 24.8 °F 15.5 °F 21.2 °F 86% 29.74 in 6.2 mi NW 8.9 mph - N/A   Overcast
3:30 PM 24.8 °F 14.2 °F 21.2 °F 86% 29.74 in 6.2 mi NW 11.2 mph - N/A   Overcast
4:00 PM 24.8 °F 15.5 °F 21.2 °F 86% 29.77 in 6.2 mi NNW 8.9 mph - N/A   Overcast
4:30 PM 23.0 °F 13.2 °F 21.2 °F 93% 29.77 in 6.2 mi NW 8.9 mph - N/A Snow Light Snow
5:00 PM 23.0 °F 13.2 °F 21.2 °F 93% 29.77 in 6.2 mi NNW 8.9 mph - N/A   Overcast
5:30 PM 23.0 °F 13.2 °F 19.4 °F 86% 29.80 in 6.2 mi NW 8.9 mph - N/A   Overcast
6:00 PM 23.0 °F 13.2 °F 19.4 °F 86% 29.80 in 6.2 mi WNW 8.9 mph - N/A Snow Light Snow
6:30 PM 23.0 °F 14.9 °F 21.2 °F 93% 29.80 in 6.2 mi NW 6.7 mph - N/A Snow Light Snow
7:00 PM 23.0 °F 14.9 °F 19.4 °F 86% 29.83 in 6.2 mi NW 6.7 mph - N/A Snow Light Snow
7:30 PM 23.0 °F 14.9 °F 19.4 °F 86% 29.83 in 5.6 mi NW 6.7 mph - N/A Snow Light Snow
8:00 PM 23.0 °F 14.9 °F 19.4 °F 86% 29.83 in 6.2 mi WNW 6.7 mph - N/A Snow Light Snow
8:30 PM 23.0 °F 14.9 °F 19.4 °F 86% 29.83 in 6.2 mi NW 6.7 mph - N/A Snow Light Snow
9:00 PM 23.0 °F 14.9 °F 19.4 °F 86% 29.83 in 6.2 mi NW 6.7 mph - N/A Snow Light Snow
9:30 PM 23.0 °F 17.1 °F 19.4 °F 86% 29.86 in 6.2 mi NNW 4.5 mph - N/A Snow Light Snow
10:00 PM 23.0 °F 14.9 °F 19.4 °F 86% 29.86 in 6.2 mi NW 6.7 mph - N/A Snow Light Snow
10:30 PM 23.0 °F 14.9 °F 17.6 °F 80% 29.86 in 6.2 mi WNW 6.7 mph - N/A   Overcast
11:00 PM 23.0 °F 14.9 °F 17.6 °F 80% 29.86 in 6.2 mi NW 6.7 mph - N/A   Overcast
11:30 PM 23.0 °F 14.9 °F 17.6 °F 80% 29.86 in 6.2 mi WNW 6.7 mph - N/A   Overcast